Regional Weather Roundup
Issued by NWS

Home | Current Version | Previous Version | Graphics & Text | Print | Product List | Glossary On
Versions: 1 2 3 4 5 6 7 8 9 10 11 12 13 14 15 16 17 18 19 20 21 22 23 24 25 26 27 28 29 30 31 32 33 34 35 36 37 38 39 40 41 42 43 44 45 46 47 48 49 50
000
ASUS43 KLOT 011410
RWRIL

ILLINOIS REGIONAL WEATHER ROUNDUP
NATIONAL WEATHER SERVICE CHICAGO/ROMEOVILLE IL
900 AM CDT MON SEP 01 2014

NOTE: "FAIR" INDICATES FEW OR NO CLOUDS BELOW 12,000 FEET WITH NO
SIGNIFICANT WEATHER AND/OR OBSTRUCTIONS TO VISIBILITY.

* THESE STATIONS ARE NOT UNDER NWS QUALITY CONTROL. THEY ALSO MAY NOT
  REPORT WEATHER SUCH AS PRECIPITATION OR FOG.

ILZ001-002-007-009-015-016-024-011500-
NORTHWEST ILLINOIS

CITY           SKY/WX    TMP DP  RH WIND       PRES   REMARKS
MOLINE         PTSUNNY   69  65  86 SW5       29.77R
STERLING*      CLOUDY    68  64  88 NW10      29.77R
SAVANNA*       CLOUDY    69  65  87 SW6       29.75R
$$

ILZ003-004-008-010-011-017-018-011500-
NORTH CENTRAL ILLINOIS

CITY           SKY/WX    TMP DP  RH WIND       PRES   REMARKS
ROCKFORD       CLOUDY    72  68  87 S9        29.75S
FREEPORT*      PTSUNNY   67  65  92 SW7       29.78R
ROCHELLE*      CLOUDY    70  68  92 W6        29.76R
DE KALB*       CLOUDY    71  69  94 SW16      29.75R FOG
PERU*          LGT RAIN  73  70  90 SW10      29.74F
$$

ILZ005-006-012>014-019>023-011500-
NORTHEAST ILLINOIS

CITY           SKY/WX    TMP DP  RH WIND       PRES   REMARKS
CHICAGO-OHARE  CLOUDY    76  68  76 S15G22    29.73F
CHICAGO-MIDWAY CLOUDY    77  72  84 S17       29.74F
AURORA         CLOUDY    75  70  84 S14       29.74S HAZE
LANSING*         N/A    N/A N/A N/A MISG        N/A
JOLIET*        CLOUDY    75  70  84 S16G23    29.75F
WAUKEGAN       PTSUNNY   75  69  81 S16       29.71R
DUPAGE AIRPORT CLOUDY    75  71  87 S16G24    29.74S
KANKAKEE*      CLOUDY    75  72  91 S14G21    29.80F
WHEELING       CLOUDY    77  70  79 S15       29.74F
MORRIS*        CLOUDY    75  73  92 S14G23    29.74F
ROMEOVILLE*    CLOUDY    74  72  92 SW12G21   29.75F FOG
NORTHERLY ISL    N/A     75  69  81 S8          N/A
$$

LMZ740>746-011500-
SOUTHERN LAKE MICHIGAN

STATION/POSITION SKY/WX   TEMP    WIND        PRES    VSBY  WAVE
                          AIR SEA DIR/SP/G                  HT/PER
                          (F)     (DEG/KT/KT) (MB)    (MI)  (FT/S)
SOUTHERN BUOY              72 69  170/ 19/ 21 1005.8F         3/ 4
WAUKEGAN HARBOR            74     210/ 17       N/A
HARRISON CRIB              74     190/ 24/ 27   N/A
BURNHAM HARBOR             76     190/ 10/ 18   N/A
CALUMET HARBOR             75     180/ 13/ 16 1006.5F
MICHIGAN CITY              74     160/ 13/ 18   N/A
MICHIGAN CITY 6N           74 72  190/ 14/ 19   N/A           1/ 3
ST. JOSEPH                 74 72  160/ 14/ 19   N/A           3/ 3
$$

ILZ025>027-034>036-040-047-049-050-058-095>099-011500-
WEST-CENTRAL ILLINOIS

CITY           SKY/WX    TMP DP  RH WIND       PRES   REMARKS
QUINCY         CLOUDY    70  65  84 W9        29.80R
GALESBURG*     PTSUNNY   71  68  92 W10       29.80R
MACOMB*        CLOUDY    70  65  85 W9        29.81R
JACKSONVILLE*  CLOUDY    74  64  73 CALM      29.75R
PITTSFIELD*    CLOUDY    72  63  73 SW10      29.79R
$$

ILZ028>032-037-038-041>044-048-051>054-059>061-011500-
CENTRAL ILLINOIS

CITY           SKY/WX    TMP DP  RH WIND       PRES   REMARKS
PONTIAC        CLOUDY    75  73  94 S14G21    29.76F
DECATUR        CLOUDY    76  71  85 S23G30    29.82F
PEORIA         CLOUDY    76  69  79 S15       29.74F
LACON*         PTSUNNY   73  69  87 SW9       29.73R
LINCOLN*       CLOUDY    76  71  85 SW6       29.74F
SPRINGFIELD    CLOUDY    75  67  76 S24G36    29.68F
TAYLORVILLE    CLOUDY    73  70  88 S16       29.83F
$$

ILZ033-039-045-046-055>057-062-063-011500-
EAST-CENTRAL ILLINOIS

CITY           SKY/WX    TMP DP  RH WIND       PRES   REMARKS
CHAMPAIGN      CLOUDY    75  72  90 SW13G24   29.85S
DANVILLE*      CLOUDY    74  72  92 S14       29.83F FOG
RANTOUL*       CLOUDY    76  71  84 SW14G21   29.84F
MATTOON        CLOUDY    75  71  87 SW13G23   29.88S
PARIS*         CLOUDY    75  72  89 S14G20    29.89S
$$

ILZ079-100>102-011500-
SOUTHWEST ILLINOIS

CITY           SKY/WX    TMP DP  RH WIND       PRES   REMARKS
ALTON          CLOUDY    73  63  68 S8        29.88F
BELLEVILLE     CLOUDY    75  71  89 VRB5      29.91S
CAHOKIA*       CLOUDY    74  66  76 S6        29.88F
SPARTA*        CLOUDY    76  72  86 SW10G17   29.95R
$$

ILZ064>066-069>071-074>076-080>082-084>086-088>090-092>094-011500-
SOUTH-CENTRAL ILLINOIS

CITY           SKY/WX    TMP DP  RH WIND       PRES   REMARKS
CARBONDALE     PTSUNNY   77  71  82 SW18G24   29.95S
CAIRO*         PTSUNNY   81  74  81 S9G17     29.99F HX  86
EFFINGHAM*     CLOUDY    77  70  79 SW14G20   29.90S
MARION         PTSUNNY   79  73  83 SW15G21   29.96F HX  82
MT. VERNON     CLOUDY    77  70  78 SW17      29.95S
CENTRALIA*     PTSUNNY   77  72  83 SW16G23   29.92S
SALEM*         PTSUNNY   78  74  86 SW14      29.92S HX  81
METROPOLIS*    PTSUNNY   80  75  85 SW7       29.99F HX  85
$$

ILZ067-068-072-073-078-083-087-091-011500-
SOUTHEAST ILLINOIS

CITY           SKY/WX    TMP DP  RH WIND       PRES   REMARKS
LAWRENCEVILLE  CLOUDY    79  73  82 S20       29.93F HX  82
FLORA*         MOSUNNY   77  73  87 S14       29.93F
FAIRFIELD*     PTSUNNY   79  75  89 SW8       29.93F HX  82
HARRISBURG*    SUNNY     80  73  80 SW15G22   29.96F HX  84
ROBINSON*      PTSUNNY   80  75  85 SW16G23   29.93S HX  84
CARMI*         MOSUNNY   81  75  83 SW16G22   29.95F HX  86
$$

ABBREVIATIONS USED IN REMARKS
   TC - TEMPERATURE IN CELSIUS
  WCI - WIND CHILL INDEX
   HX - HEAT INDEX
  VSB - VISIBILITY
$$




USA.gov is the U.S. government's official web portal to all federal, state and local government web resources and services.